Home   Weather   Zabrze   Past weeks

Flag for Poland Past Weather in Zabrze, Poland — Yesterday and Last 2 Weeks

43 °F

Passing clouds.

Feels Like: 39 °F
Forecast: 46 / 64 °F
Wind: 6 mph from Southeast

Location: Katowice Airport

Current Time: Oct 24, 2016 at 7:14:41 AM

Latest Report: Oct 24, 2016 at 6:30 AM

Visibility: N/A

Pressure: 30.07 "Hg

Humidity: 87%

Dew Point: 39 °F

Location of ZabrzeLocation

Past Weather in Zabrze — Graph


Zabrze Temperature Yesterday

Maximum temperature yesterday: 55 °F (at 1:30 PM)
Minimum temperature yesterday: 39 °F (at 12:00 AM)
Average temperature yesterday: 45 °F

High & Low Weather Summary for the Past Weeks

High57 °F (Oct 15, 12:00 PM)100% (Oct 9, 6:00 AM)30.36 "Hg (Oct 9, 6:00 AM)
Low32 °F (Oct 14, 3:00 AM)44% (Oct 23, 3:00 PM)29.92 "Hg (Oct 21, 1:30 PM)
Average44 °F88%30.10 "Hg
* Reported Oct 9 6:00 AM — Oct 24 6:00 AM, Zabrze, Weather by CustomWeather, © 2016

Note: Actual official high and low records may vary slightly from our data, if they occured in-between our weather recording intervals... More about our weather records


Zabrze Weather History for the Previous 24 Hours

Scroll right to see more
Time TempWeatherWind HumidityBarometerVisibility
6:00 AM
Mon, Oct 24
43 °FClear.7 mph87%30.07 "Hg10 mi
5:30 AM43 °FClear.7 mph87%30.07 "Hg10 mi
5:00 AM43 °FClear.8 mph87%30.07 "Hg10 mi
4:30 AM43 °FClear.8 mph81%30.07 "Hg10 mi
4:00 AM43 °FClear.8 mph87%30.07 "Hg10 mi
3:30 AM43 °FClear.8 mph87%30.07 "Hg10 mi
3:00 AM45 °FClear.8 mph81%30.09 "Hg10 mi
2:30 AM45 °FClear.8 mph81%30.07 "Hg10 mi
2:00 AM45 °FClear.7 mph81%30.09 "Hg10 mi
1:30 AM43 °FClear.8 mph87%30.07 "Hg10 mi
1:00 AM45 °FClear.8 mph87%30.09 "Hg5 mi
12:30 AM45 °FClear.9 mph87%30.09 "Hg5 mi
12:00 AM45 °FClear.9 mph87%30.09 "Hg5 mi
11:30 PM
Sun, Oct 23
45 °FClear.8 mph87%30.09 "Hg5 mi
11:00 PM45 °FPassing clouds.7 mph93%30.09 "Hg5 mi
10:30 PM43 °FClear.7 mph93%30.09 "Hg4 mi
10:00 PM43 °FClear.8 mph93%30.07 "Hg4 mi
9:30 PM41 °FFog.8 mph100%30.09 "Hg3 mi
9:00 PM41 °FClear.7 mph93%30.07 "Hg4 mi
8:30 PM39 °FPassing clouds.8 mph93%30.07 "Hg4 mi
8:00 PM43 °FClear.8 mph93%30.07 "Hg6 mi
7:30 PM39 °FClear.8 mph93%30.07 "Hg4 mi
7:00 PM43 °FClear.7 mph87%30.07 "Hg10 mi
6:30 PM46 °FClear.9 mph82%30.07 "Hg10 mi
6:00 PM45 °FClear.7 mph81%30.07 "Hg10 mi
5:30 PM46 °FSunny.8 mph76%30.07 "Hg10 mi
5:00 PM54 °FSunny.6 mph54%30.07 "Hg10 mi
4:30 PM54 °FSunny.6 mph54%30.07 "Hg10 mi
4:00 PM55 °FPassing clouds.6 mph51%30.07 "HgN/A
3:30 PM55 °FPassing clouds.7 mph51%30.07 "HgN/A
3:00 PM55 °FPassing clouds.9 mph44%30.07 "HgN/A
2:30 PM55 °FPassing clouds.9 mph47%30.07 "HgN/A
2:00 PM55 °FPassing clouds.10 mph47%30.07 "HgN/A
1:30 PM55 °FPassing clouds.9 mph47%30.07 "HgN/A
1:00 PM54 °FPassing clouds.8 mph51%30.07 "HgN/A
12:30 PM54 °FSunny.12 mph54%30.09 "Hg10 mi
12:00 PM54 °FSunny.12 mph54%30.09 "Hg10 mi
11:30 AM52 °FSunny.13 mph58%30.09 "Hg10 mi
11:00 AM50 °FPassing clouds.10 mph62%30.09 "HgN/A
10:30 AM48 °FSunny.9 mph71%30.09 "Hg10 mi
10:00 AM46 °FSunny.7 mph82%30.09 "Hg10 mi
9:30 AM45 °FSunny.8 mph81%30.09 "Hg10 mi
9:00 AM45 °FPassing clouds.9 mph81%30.07 "HgN/A
8:30 AM43 °FScattered clouds.7 mph87%30.07 "Hg5 mi
8:00 AM41 °FPartly sunny.7 mph93%30.07 "Hg5 mi
7:30 AM41 °FScattered clouds.9 mph93%30.07 "Hg5 mi
7:00 AM41 °FPassing clouds.8 mph93%30.07 "Hg4 mi
Weather by CustomWeather, © 2016

See weather overviewHow to use our weather pages